Regional Weather Roundup
Issued by NWS

Home | Current Version | Previous Version | Graphics & Text | Print | Product List | Glossary On
Versions: 1 2 3 4 5 6 7 8 9 10 11 12 13 14 15 16 17 18 19 20 21 22 23 24 25 26 27 28 29 30 31 32 33 34 35 36 37 38 39 40 41 42 43 44 45 46 47 48 49 50
000
ASUS43 KMPX 251510
RWRMN
WEATHER ROUNDUP FOR MINNESOTA
NATIONAL WEATHER SERVICE TWIN CITIES/CHANHASSEN MN
900 AM CST TUE NOV 25 2014


NOTE: "FAIR" INDICATES FEW OR NO CLOUDS BELOW 12,000 FEET WITH NO
SIGNIFICANT WEATHER AND/OR OBSTRUCTIONS TO VISIBILITY. N/A MEANS
CURRENT SKY AND/OR WEATHER CONDITIONS ARE NOT AVAILABLE.

MNZ060>063-068>070-251600-
   Twin Cities Metro

CITY           SKY/WX    TMP DP  RH WIND       PRES   REMARKS
TWIN CITIES    SUNNY     14   7  73 W3        30.05R
ST PAUL        SUNNY     14   9  80 W6        30.07R WCI   5
CRYSTAL        SUNNY     13   7  77 VRB3      30.04R
BLAINE         SUNNY     14   9  79 W6        30.03R WCI   5
LAKEVILLE      SUNNY     10   9  92 W7        30.04R WCI   0
EDEN PRAIRIE   SUNNY     13   8  81 SW6       30.04R WCI   4
SOUTH ST PAUL  SUNNY     15   9  76 W7        30.05R WCI   5
LAKE ELMO      FAIR      14  10  85 SW6       30.05R WCI   5
$$
MNZ001>005-007-008-013>017-022>024-027-028-251600-
   Northwest Minnesota

CITY           SKY/WX    TMP DP  RH WIND       PRES   REMARKS
BEMIDJI        CLOUDY    10   5  80 SW3       29.94R
HALLOCK        CLOUDY     9   7  92 CALM      29.96R
ROSEAU         MOCLDY     9   3  78 S6        29.93S WCI  -1
WARROAD        MOCLDY     9   3  78 SW3       29.93S
THIEF RVR FALL MOCLDY    12   9  85 S3        29.95R
CROOKSTON      CLEAR     14  10  85 S6        29.97F WCI   5
FOSSTON        CLOUDY    10   7  85 S7        29.95S WCI   0
DETROIT LAKES  CLOUDY    18  10  73 S3        29.95S
MOORHEAD       CLOUDY    19  16  86 S7        29.98R WCI  10
PARK RAPIDS    CLOUDY    11   7  84 CALM      29.95R
MAHNOMEN       CLOUDY    15   8  75 S3        29.95S
$$
MNZ006-009>011-018-025>026-251600-
   North Central Minnesota

CITY           SKY/WX    TMP DP  RH WIND       PRES   REMARKS
BAUDETTE       MOCLDY     1  -4  79 CALM      29.93R
FLAG ISLAND    CLOUDY     3  -2  78 CALM      29.93S
INTL FALLS     CLOUDY     2  -3  80 W5        29.94R WCI  -8
WASKISH        PTCLDY     3   1  92 CALM      29.94S
BIG FORK       SUNNY      1  -2  85 CALM      29.94S
LONGVILLE      CLOUDY     7   5  92 CALM      29.96R
GRAND RAPIDS   SUNNY      5   3  92 W5        29.94R WCI  -4
CRANE LAKE     SUNNY      5   3  92 SW5       29.96S WCI  -4
ORR            FLURRIES   3   0  85 CALM      29.91S
COOK           LGT SNOW   5   3  92 W3        29.95R
WALKER         CLOUDY    10   5  81 CALM      29.95R
$$
MNZ012-019>021-037-251600-
   Northeast Minnesota

CITY           SKY/WX    TMP DP  RH WIND       PRES   REMARKS
DULUTH         MOSUNNY   10   5  80 NW10      29.92R WCI  -4
ELY            LGT SNOW   5   1  85 CALM      29.92R
HIBBING        SUNNY      7   2  80 CALM      29.94R
EVELETH        SUNNY      7   3  85 CALM      29.94S
DULUTH HARBOR  SUNNY     16   9  73 CALM      30.01S
TWO HARBORS    FLURRIES  14   9  79 CALM      29.94R
SILVER BAY     SUNNY     14   7  73 CALM      29.92R
GRAND MARAIS     N/A     15   6  67 W3        29.96R
G MARAIS ARPRT SUNNY      7   0  72 NW6       29.84R WCI  -3
$$
MNZ029>031-032-039>041-046>048-054>057-064-251600-
   West Central Minnesota

CITY           SKY/WX    TMP DP  RH WIND       PRES   REMARKS
FERGUS FALLS   CLOUDY    16   7  67 S6        30.01R WCI   7
WHEATON        CLOUDY    18  10  73 SE7       30.00R WCI   8
MORRIS           N/A     16   9  73 S7        29.98S WCI   6
ALEXANDRIA     CLOUDY    14   6  70 SW6       29.98R WCI   5
ELBOW LAKE       N/A     15   9  80 SE9       29.97F WCI   3
WADENA         CLOUDY    12   7  79 CALM      29.96R
GLENWOOD       CLOUDY    12   9  85 SW5       29.99R WCI   4
APPLETON       PTSUNNY   18  10  73 CALM      30.01R
BENSON         CLOUDY    14   7  73 S5        30.01R WCI   6
ORTONVILLE     CLOUDY    18  10  73 SE5       29.98S WCI  11
MADISON        MOSUNNY   21  12  68 S5        30.01S WCI  15
WILLMAR        FAIR      12   7  79 SW6       30.02R WCI   3
$$
MNZ033>034-036-042>043-049>051-058-059-251600-
   Central Minnesota

CITY           SKY/WX    TMP DP  RH WIND       PRES   REMARKS
ST CLOUD       CLOUDY    12   6  77 CALM      30.00F
SAUK CENTRE    CLOUDY    13   6  75 CALM      29.99S
PAYNESVILLE    CLOUDY    10   3  76 S5        30.01R WCI   1
AITKIN         CLOUDY    12   7  79 CALM      29.96R
PINE RIVER     CLOUDY     9   5  85 CALM      30.00R
BRAINERD       CLOUDY     8   5  87 SW3       29.98R
STAPLES        CLOUDY    10   7  85 CALM      29.97R
LONG PRAIRIE   CLOUDY    12   9  85 CALM      29.98S
LITTLE FALLS   CLOUDY    10   7  85 CALM      30.00R
LITCHFIELD     CLOUDY    12   9  85 SW3       30.02R
BUFFALO        CLOUDY    11   6  81 CALM      30.04S
MAPLE LAKE     CLOUDY    12   8  84 CALM      30.02F
$$
MNZ037-044-045-052-053-251600-
   East Central Minnesota

CITY           SKY/WX    TMP DP  RH WIND       PRES   REMARKS
PRINCETON      CLOUDY    12   7  79 CALM      30.00F
MORA           MOSUNNY   10   5  79 CALM      30.02S
CAMBRIDGE      SUNNY     10   3  72 CALM      30.00S
RUSH CITY      SUNNY     11   8  86 CALM      30.03R
MOOSE LAKE     SUNNY     10   5  79 NW3       29.98R
HINCKLEY       FAIR      12   9  85 CALM      30.00S
CLOQUET        SUNNY     10   7  85 NW7       29.95R WCI   0
MCGREGOR       PTSUNNY   10   7  85 W3        29.98R
$$
MNZ071>073-080-081-089-090-097-098-251600-
   Southwest Minnesota

CITY           SKY/WX    TMP DP  RH WIND       PRES   REMARKS
MONTEVIDEO     CLOUDY    16   9  73 SW3       30.03R
GRANITE FALLS  CLOUDY    15  10  78 S6        30.04R WCI   7
CANBY          CLOUDY    23  11  60 CALM      30.00S
MARSHALL       CLOUDY    19   5  53 SW3       30.01S
REDWOOD FALLS  MOSUNNY   15   6  67 SW5       30.04R WCI   8
OLIVIA         SUNNY     16  10  79 SW3       30.03R
PIPESTONE      CLOUDY    18  10  73 SW5       29.99R WCI  11
WINDOM         SUNNY     16   7  67 SW7       30.02R WCI   6
WORTHINGTON    SUNNY     16   9  73 SW9       30.02R WCI   4
JACKSON        SUNNY     18   9  68 SW7       30.02R WCI   8
TRACY          SUNNY     19   8  63 SW8       30.01R WCI   9
SLAYTON        PTSUNNY   19   5  56 SW7       30.01R WCI   9
$$
MNZ065>067-074>077-082>085-091>093-251600-
   South Central Minnesota

CITY           SKY/WX    TMP DP  RH WIND       PRES   REMARKS
MANKATO        SUNNY     12   3  67 W3        30.05R
NEW ULM        SUNNY     10   7  85 CALM      30.04S
ST JAMES       SUNNY     16   7  67 SW7       30.05F WCI   6
FAIRMONT       SUNNY     18   7  62 SW5       30.05R WCI  11
GLENCOE        SUNNY     13   8  83 SW3       30.03S
FARIBAULT      SUNNY     12   9  85 SW5       30.05R WCI   4
OWATONNA       SUNNY     10   7  85 W6        30.04R WCI   1
WASECA         SUNNY     12   5  73 SW6       30.06R WCI   3
ALBERT LEA     SUNNY     12   9  85 W5        30.03R WCI   4
$$
MNZ078>079-086>088-094>096-251600-
   Southeast Minnesota

CITY           SKY/WX    TMP DP  RH WIND       PRES   REMARKS
ROCHESTER      SUNNY     11   7  84 W7        30.02R WCI   0
RED WING       LGT SNOW  16   9  73 W6        30.04S WCI   7
STANTON        SUNNY     12   8  83 SW5       30.04R WCI   4
DODGE CENTER   MOSUNNY   10   9  92 W7        30.01R WCI   0
WINONA         CLOUDY    18  12  79 W6        30.06S WCI   9
AUSTIN         SUNNY     12   7  79 W7        30.03R WCI   2
PRESTON        FLURRIES  10   6  85 W6        30.03R WCI   0
$$
ABBREVIATIONS USED IN REMARKS
   TC - TEMPERATURES IN CELSIUS
  WCI - WIND CHILL INDEX
   HX - HEAT INDEX
  VSB - VISIBILITY
$$


USA.gov is the U.S. government's official web portal to all federal, state and local government web resources and services.